TimeEST,TemperatureF,Dew PointF,Humidity,Sea Level PressureIn,VisibilityMPH,Wind Direction,Wind SpeedMPH,Gust SpeedMPH,PrecipitationIn,Events,Conditions,WindDirDegrees,DateUTC
12:15 AM,41.9,41.4,98,30.15,5.0,Calm,Calm,-,0.01,Rain,Light Rain,0,2013-02-22 05:15:00
12:35 AM,42.1,41.5,98,30.15,5.0,Calm,Calm,-,0.04,Rain,Rain,0,2013-02-22 05:35:00
12:55 AM,41.9,41.5,99,30.11,5.0,ENE,4.6,-,0.06,Rain,Rain,70,2013-02-22 05:55:00
1:15 AM,42.8,41.4,95,30.10,10.0,NNW,4.6,-,N/A,Rain,Light Rain,330,2013-02-22 06:15:00
1:35 AM,43.9,41.0,90,30.10,10.0,NNW,10.4,-,0.01,Rain,Light Rain,330,2013-02-22 06:35:00
1:55 AM,43.7,41.0,90,30.09,10.0,NNW,9.2,-,0.03,Rain,Light Rain,330,2013-02-22 06:55:00
2:15 AM,44.6,40.6,86,30.09,7.0,West,4.6,-,0.04,Rain,Rain,280,2013-02-22 07:15:00
2:35 AM,43.0,41.4,94,30.09,7.0,West,5.8,-,0.07,Rain,Rain,260,2013-02-22 07:35:00
2:55 AM,42.8,41.5,95,30.06,7.0,Calm,Calm,-,0.14,Rain,Light Rain,0,2013-02-22 07:55:00
3:15 AM,42.8,41.9,97,30.07,7.0,Calm,Calm,-,0.03,Rain,Rain,0,2013-02-22 08:15:00
3:35 AM,43.7,41.0,90,30.05,7.0,WNW,5.8,-,0.07,Rain,Light Rain,300,2013-02-22 08:35:00
3:55 AM,43.7,41.0,90,30.06,7.0,WNW,5.8,-,0.12,Rain,Rain,300,2013-02-22 08:55:00
4:15 AM,43.7,40.6,89,30.07,7.0,West,9.2,-,N/A,Rain,Rain,280,2013-02-22 09:15:00
4:35 AM,43.7,40.6,89,30.07,7.0,West,11.5,-,N/A,,Drizzle,280,2013-02-22 09:35:00
4:55 AM,43.3,40.3,89,30.08,10.0,West,9.2,-,N/A,,Drizzle,260,2013-02-22 09:55:00
5:15 AM,43.5,39.9,87,30.08,10.0,West,10.4,-,N/A,,Drizzle,260,2013-02-22 10:15:00
5:35 AM,43.0,40.5,91,30.08,7.0,West,11.5,-,N/A,Rain,Rain,260,2013-02-22 10:35:00
5:55 AM,43.3,40.1,88,30.08,10.0,SW,5.8,-,N/A,,Overcast,220,2013-02-22 10:55:00
6:15 AM,42.8,41.4,95,30.10,10.0,Calm,Calm,-,N/A,,Overcast,0,2013-02-22 11:15:00
6:35 AM,43.0,41.2,93,30.09,10.0,Calm,Calm,-,N/A,,Overcast,0,2013-02-22 11:35:00
6:55 AM,42.6,41.4,95,30.08,10.0,ESE,3.5,-,N/A,,Overcast,110,2013-02-22 11:55:00
7:15 AM,42.8,41.5,95,30.08,10.0,Calm,Calm,-,N/A,,Overcast,0,2013-02-22 12:15:00
7:35 AM,42.8,41.7,96,30.08,10.0,Calm,Calm,-,N/A,,Overcast,0,2013-02-22 12:35:00
7:55 AM,42.8,42.1,97,30.09,7.0,Calm,Calm,-,N/A,,Overcast,0,2013-02-22 12:55:00
8:15 AM,43.0,42.1,97,30.10,10.0,Calm,Calm,-,N/A,,Overcast,0,2013-02-22 13:15:00
8:35 AM,42.8,41.5,95,30.10,10.0,Calm,Calm,-,N/A,,Overcast,0,2013-02-22 13:35:00
8:55 AM,43.0,41.0,93,30.11,10.0,Calm,Calm,-,N/A,,Overcast,0,2013-02-22 13:55:00
9:15 AM,43.2,41.0,92,30.11,10.0,Calm,Calm,-,N/A,,Overcast,0,2013-02-22 14:15:00
9:35 AM,43.7,41.2,91,30.11,10.0,Calm,Calm,-,N/A,,Overcast,0,2013-02-22 14:35:00
9:55 AM,43.9,41.7,92,30.10,10.0,Calm,Calm,-,N/A,,Overcast,0,2013-02-22 14:55:00
10:15 AM,44.1,41.9,92,30.11,10.0,Calm,Calm,-,N/A,,Overcast,0,2013-02-22 15:15:00
10:35 AM,44.1,41.0,89,30.10,10.0,Calm,Calm,-,N/A,,Overcast,0,2013-02-22 15:35:00
10:55 AM,44.4,41.2,88,30.10,10.0,Calm,Calm,-,N/A,,Overcast,0,2013-02-22 15:55:00
11:15 AM,44.6,41.0,87,30.10,10.0,Calm,Calm,-,N/A,,Overcast,0,2013-02-22 16:15:00
11:35 AM,45.0,41.2,87,30.10,10.0,Calm,Calm,-,N/A,,Overcast,0,2013-02-22 16:35:00
11:55 AM,45.5,41.5,86,30.11,10.0,West,3.5,-,N/A,,Overcast,260,2013-02-22 16:55:00
12:15 PM,45.1,40.3,83,30.11,10.0,Calm,Calm,-,N/A,,Overcast,0,2013-02-22 17:15:00
12:35 PM,45.7,40.6,83,30.10,10.0,Calm,Calm,-,N/A,,Overcast,0,2013-02-22 17:35:00
12:55 PM,45.9,41.2,84,30.10,10.0,Calm,Calm,-,N/A,,Overcast,0,2013-02-22 17:55:00
1:15 PM,46.4,41.7,84,30.09,10.0,Calm,Calm,-,N/A,,Overcast,0,2013-02-22 18:15:00
1:35 PM,47.1,42.3,83,30.08,10.0,Calm,Calm,-,N/A,,Overcast,0,2013-02-22 18:35:00
1:55 PM,47.3,43.2,86,30.08,10.0,Calm,Calm,-,N/A,,Overcast,0,2013-02-22 18:55:00
2:15 PM,47.3,43.0,85,30.07,10.0,Calm,Calm,-,N/A,,Overcast,0,2013-02-22 19:15:00
2:35 PM,47.5,43.2,85,30.07,10.0,Calm,Calm,-,N/A,,Overcast,0,2013-02-22 19:35:00
2:55 PM,47.8,43.5,85,30.05,10.0,East,4.6,-,N/A,,Overcast,100,2013-02-22 19:55:00
3:15 PM,48.4,43.0,82,30.06,10.0,Calm,Calm,-,N/A,,Overcast,0,2013-02-22 20:15:00
3:35 PM,48.4,42.6,80,30.06,10.0,Calm,Calm,-,N/A,,Overcast,0,2013-02-22 20:35:00
3:55 PM,48.6,42.8,80,30.05,10.0,Calm,Calm,-,N/A,,Overcast,0,2013-02-22 20:55:00
4:15 PM,48.9,43.3,81,30.04,10.0,Calm,Calm,-,N/A,,Overcast,0,2013-02-22 21:15:00
4:35 PM,48.9,43.3,81,30.04,10.0,Calm,Calm,-,N/A,,Overcast,0,2013-02-22 21:35:00
4:55 PM,49.1,43.2,80,30.03,10.0,Calm,Calm,-,N/A,,Overcast,0,2013-02-22 21:55:00
5:15 PM,48.9,43.5,82,30.04,10.0,Calm,Calm,-,N/A,,Overcast,0,2013-02-22 22:15:00
5:35 PM,49.1,42.8,79,30.03,10.0,Calm,Calm,-,N/A,,Overcast,0,2013-02-22 22:35:00
5:55 PM,48.7,42.6,79,30.03,10.0,Calm,Calm,-,N/A,,Overcast,0,2013-02-22 22:55:00
6:15 PM,48.4,44.1,85,30.03,10.0,Calm,Calm,-,N/A,,Overcast,0,2013-02-22 23:15:00
6:35 PM,47.7,45.1,91,30.04,10.0,Calm,Calm,-,N/A,,Overcast,0,2013-02-22 23:35:00
6:55 PM,47.5,44.6,90,30.06,10.0,Calm,Calm,-,N/A,,Overcast,0,2013-02-22 23:55:00
7:15 PM,46.8,45.0,93,30.05,10.0,ENE,3.5,-,N/A,,Overcast,70,2013-02-23 00:15:00
7:35 PM,47.3,43.2,86,30.06,10.0,Calm,Calm,-,N/A,,Overcast,0,2013-02-23 00:35:00
7:55 PM,46.8,43.7,89,30.06,10.0,Calm,Calm,-,N/A,,Overcast,0,2013-02-23 00:55:00
8:15 PM,47.1,43.9,88,30.06,10.0,Calm,Calm,-,N/A,,Overcast,0,2013-02-23 01:15:00
8:35 PM,46.4,44.4,93,30.05,10.0,Calm,Calm,-,N/A,,Overcast,0,2013-02-23 01:35:00
8:55 PM,46.2,44.2,93,30.04,10.0,Calm,Calm,-,N/A,,Overcast,0,2013-02-23 01:55:00
9:15 PM,46.6,43.5,89,30.03,10.0,Calm,Calm,-,N/A,,Overcast,0,2013-02-23 02:15:00
9:35 PM,46.4,44.2,92,30.03,10.0,Calm,Calm,-,N/A,,Overcast,0,2013-02-23 02:35:00
9:55 PM,46.4,44.1,92,30.02,10.0,North,3.5,-,N/A,,Overcast,360,2013-02-23 02:55:00
10:15 PM,46.6,43.5,89,30.03,10.0,Calm,Calm,-,N/A,,Mostly Cloudy,0,2013-02-23 03:15:00
10:35 PM,45.9,43.7,92,30.03,10.0,Calm,Calm,-,N/A,,Mostly Cloudy,0,2013-02-23 03:35:00
10:55 PM,45.1,43.7,95,30.06,10.0,Calm,Calm,-,N/A,Rain,Light Rain,0,2013-02-23 03:55:00
11:15 PM,45.9,44.1,93,30.05,10.0,West,4.6,-,N/A,Rain,Rain,270,2013-02-23 04:15:00
11:35 PM,46.0,44.1,93,30.05,10.0,Calm,Calm,-,N/A,Rain,Rain,0,2013-02-23 04:35:00
11:55 PM,45.3,44.2,96,30.03,10.0,ENE,3.5,-,N/A,Rain,Light Rain,70,2013-02-23 04:55:00